{"data":{"norad_id":68134,"intl_designator":"2026-047F","name":"HULIANWANG DIGUI-160","alt_names":[],"object_type":"PAYLOAD","status":"ACTIVE","operator":null,"country":"PRC","launch_date":"2026-03-12","launch_site_code":"WSC","launch_vehicle":null,"mission":null,"orbit_class":"UNKNOWN","rcs_meters":null,"size_class":null,"mass_kg":null,"dimensions":null,"purposes":[],"wikipedia_slug":null,"has_3d_model":false,"image_url":null,"decayed_at":null,"tle_current":{"epoch":"2026-05-25T00:34:27.488064Z","epoch_age_seconds":69104,"freshness":"FRESH","line1":"1 68134U 26047F   26145.02392926 -.00000088  00000+0  76709-4 0  9991","line2":"2 68134  50.0052 139.0551 0000528 348.6766  11.4094 13.29331900  9981","mean_motion":13.293319,"eccentricity":5.28e-5,"inclination_deg":50.0052,"raan_deg":139.0551,"arg_perigee_deg":348.6766,"mean_anomaly_deg":11.4094,"bstar":7.6709e-5,"rev_number":998,"period_min":108.32509172465,"perigee_km":1148.8868511918,"apogee_km":1149.681746881,"semimajor_km":7527.4212990364,"source":"CELESTRAK","updated_at":"2026-05-25T13:38:07.576909Z"}}}